Time,TemperatureF,DewpointF,PressureIn,WindDirection,WindDirectionDegrees,WindSpeedMPH,WindSpeedGustMPH,Humidity,HourlyPrecipIn,Conditions,Clouds,dailyrainin,SoftwareType,DateUTC
2013-02-25 00:01:00,48.0,-99.9,-100.00,SE,140,8.0,-999.0,-999,-99.99,,,-99.99,,2013-02-25 08:01:00,
2013-02-25 00:11:00,48.0,-99.9,-100.00,SE,140,8.0,-999.0,-999,-99.99,,,-99.99,,2013-02-25 08:11:00,
2013-02-25 00:20:00,45.0,-99.9,-100.00,SSE,154,17.0,-999.0,-999,-99.99,,,-99.99,,2013-02-25 08:20:00,
2013-02-25 01:02:00,45.0,-99.9,-100.00,SSE,154,17.0,-999.0,-999,-99.99,,,-99.99,,2013-02-25 09:02:00,
2013-02-25 01:12:00,45.0,-99.9,-100.00,SSE,154,17.0,-999.0,-999,-99.99,,,-99.99,,2013-02-25 09:12:00,
2013-02-25 01:20:00,44.0,-99.9,-100.00,SSE,157,14.0,-999.0,-999,-99.99,,,-99.99,,2013-02-25 09:20:00,
2013-02-25 02:01:00,44.0,-99.9,-100.00,SSE,157,14.0,-999.0,-999,-99.99,,,-99.99,,2013-02-25 10:01:00,
2013-02-25 02:11:00,44.0,-99.9,-100.00,SSE,157,14.0,-999.0,-999,-99.99,,,-99.99,,2013-02-25 10:11:00,
2013-02-25 02:20:00,43.0,-99.9,-100.00,SSE,162,23.0,-999.0,-999,-99.99,,,-99.99,,2013-02-25 10:20:00,
2013-02-25 03:01:00,43.0,-99.9,-100.00,SSE,162,23.0,-999.0,-999,-99.99,,,-99.99,,2013-02-25 11:01:00,
2013-02-25 03:11:00,43.0,-99.9,-100.00,SSE,162,23.0,-999.0,-999,-99.99,,,-99.99,,2013-02-25 11:11:00,
2013-02-25 03:20:00,44.0,-99.9,-100.00,SSE,156,24.0,-999.0,-999,-99.99,,,-99.99,,2013-02-25 11:20:00,
2013-02-25 04:02:00,44.0,-99.9,-100.00,SSE,156,24.0,-999.0,-999,-99.99,,,-99.99,,2013-02-25 12:02:00,
2013-02-25 04:11:00,44.0,-99.9,-100.00,SSE,156,24.0,-999.0,-999,-99.99,,,-99.99,,2013-02-25 12:11:00,
2013-02-25 04:20:00,44.0,-99.9,-100.00,South,186,21.0,-999.0,-999,-99.99,,,-99.99,,2013-02-25 12:20:00,
2013-02-25 05:03:00,44.0,-99.9,-100.00,South,186,21.0,-999.0,-999,-99.99,,,-99.99,,2013-02-25 13:03:00,
2013-02-25 05:12:00,44.0,-99.9,-100.00,South,186,21.0,-999.0,-999,-99.99,,,-99.99,,2013-02-25 13:12:00,
2013-02-25 05:20:00,43.0,-99.9,-100.00,SSW,200,31.0,-999.0,-999,-99.99,,,-99.99,,2013-02-25 13:20:00,
2013-02-25 06:04:00,43.0,-99.9,-100.00,SSW,200,31.0,-999.0,-999,-99.99,,,-99.99,,2013-02-25 14:04:00,
2013-02-25 06:18:00,43.0,-99.9,-100.00,SSW,200,31.0,-999.0,-999,-99.99,,,-99.99,,2013-02-25 14:18:00,
2013-02-25 06:20:00,43.0,-99.9,-100.00,South,185,30.0,-999.0,-999,-99.99,,,-99.99,,2013-02-25 14:20:00,
2013-02-25 07:03:00,43.0,-99.9,-100.00,South,185,30.0,-999.0,-999,-99.99,,,-99.99,,2013-02-25 15:03:00,
2013-02-25 07:11:00,43.0,-99.9,-100.00,South,185,30.0,-999.0,-999,-99.99,,,-99.99,,2013-02-25 15:11:00,
2013-02-25 07:20:00,43.0,-99.9,-100.00,SSW,200,29.0,-999.0,-999,-99.99,,,-99.99,,2013-02-25 15:20:00,
2013-02-25 08:02:00,43.0,-99.9,-100.00,SSW,200,29.0,-999.0,-999,-99.99,,,-99.99,,2013-02-25 16:02:00,
2013-02-25 08:12:00,43.0,-99.9,-100.00,SSW,200,29.0,-999.0,-999,-99.99,,,-99.99,,2013-02-25 16:12:00,
2013-02-25 08:20:00,42.0,-99.9,-100.00,SSW,195,39.0,-999.0,-999,-99.99,,,-99.99,,2013-02-25 16:20:00,
2013-02-25 09:02:00,42.0,-99.9,-100.00,SSW,195,39.0,-999.0,-999,-99.99,,,-99.99,,2013-02-25 17:02:00,
2013-02-25 09:11:00,42.0,-99.9,-100.00,SSW,195,39.0,-999.0,-999,-99.99,,,-99.99,,2013-02-25 17:11:00,
2013-02-25 09:20:00,44.0,-99.9,-100.00,SSW,208,31.0,-999.0,-999,-99.99,,,-99.99,,2013-02-25 17:20:00,
2013-02-25 10:02:00,44.0,-99.9,-100.00,SSW,208,31.0,-999.0,-999,-99.99,,,-99.99,,2013-02-25 18:02:00,
2013-02-25 10:12:00,44.0,-99.9,-100.00,SSW,208,31.0,-999.0,-999,-99.99,,,-99.99,,2013-02-25 18:12:00,
2013-02-25 10:20:00,46.0,-99.9,-100.00,South,180,28.0,-999.0,-999,-99.99,,,-99.99,,2013-02-25 18:20:00,
2013-02-25 11:02:00,46.0,-99.9,-100.00,South,180,28.0,-999.0,-999,-99.99,,,-99.99,,2013-02-25 19:02:00,
2013-02-25 11:11:00,46.0,-99.9,-100.00,South,180,28.0,-999.0,-999,-99.99,,,-99.99,,2013-02-25 19:11:00,
2013-02-25 11:20:00,47.0,-99.9,-100.00,SSW,199,30.0,-999.0,-999,-99.99,,,-99.99,,2013-02-25 19:20:00,
2013-02-25 12:01:00,47.0,-99.9,-100.00,SSW,199,30.0,-999.0,-999,-99.99,,,-99.99,,2013-02-25 20:01:00,
2013-02-25 12:11:00,47.0,-99.9,-100.00,SSW,199,30.0,-999.0,-999,-99.99,,,-99.99,,2013-02-25 20:11:00,
2013-02-25 12:20:00,51.0,-99.9,-100.00,SW,218,21.0,-999.0,-999,-99.99,,,-99.99,,2013-02-25 20:20:00,
2013-02-25 13:02:00,51.0,-99.9,-100.00,SW,218,21.0,-999.0,-999,-99.99,,,-99.99,,2013-02-25 21:02:00,
2013-02-25 13:11:00,51.0,-99.9,-100.00,SW,218,21.0,-999.0,-999,-99.99,,,-99.99,,2013-02-25 21:11:00,
2013-02-25 13:20:00,50.0,-99.9,-100.00,SSW,202,29.0,-999.0,-999,-99.99,,,-99.99,,2013-02-25 21:20:00,
2013-02-25 14:02:00,50.0,-99.9,-100.00,SSW,202,29.0,-999.0,-999,-99.99,,,-99.99,,2013-02-25 22:02:00,
2013-02-25 14:11:00,50.0,-99.9,-100.00,SSW,202,29.0,-999.0,-999,-99.99,,,-99.99,,2013-02-25 22:11:00,
2013-02-25 14:20:00,52.0,-99.9,-100.00,SSW,211,24.0,-999.0,-999,-99.99,,,-99.99,,2013-02-25 22:20:00,
2013-02-25 15:01:00,52.0,-99.9,-100.00,SSW,211,24.0,-999.0,-999,-99.99,,,-99.99,,2013-02-25 23:01:00,
2013-02-25 15:11:00,52.0,-99.9,-100.00,SSW,211,24.0,-999.0,-999,-99.99,,,-99.99,,2013-02-25 23:11:00,
2013-02-25 15:20:00,53.0,-99.9,-100.00,SW,236,20.0,-999.0,-999,-99.99,,,-99.99,,2013-02-25 23:20:00,
2013-02-25 16:02:00,53.0,-99.9,-100.00,SW,236,20.0,-999.0,-999,-99.99,,,-99.99,,2013-02-26 00:02:00,
2013-02-25 16:12:00,53.0,-99.9,-100.00,SW,236,20.0,-999.0,-999,-99.99,,,-99.99,,2013-02-26 00:12:00,
2013-02-25 16:20:00,50.0,-99.9,-100.00,SSW,197,18.0,-999.0,-999,-99.99,,,-99.99,,2013-02-26 00:20:00,
2013-02-25 17:02:00,50.0,-99.9,-100.00,SSW,197,18.0,-999.0,-999,-99.99,,,-99.99,,2013-02-26 01:02:00,
2013-02-25 17:11:00,50.0,-99.9,-100.00,SSW,197,18.0,-999.0,-999,-99.99,,,-99.99,,2013-02-26 01:11:00,
2013-02-25 17:20:00,48.0,-99.9,-100.00,SSW,204,16.0,-999.0,-999,-99.99,,,-99.99,,2013-02-26 01:20:00,
2013-02-25 18:02:00,48.0,-99.9,-100.00,SSW,204,16.0,-999.0,-999,-99.99,,,-99.99,,2013-02-26 02:02:00,
2013-02-25 18:12:00,48.0,-99.9,-100.00,SSW,204,16.0,-999.0,-999,-99.99,,,-99.99,,2013-02-26 02:12:00,
2013-02-25 18:20:00,46.0,-99.9,-100.00,SSW,198,18.0,-999.0,-999,-99.99,,,-99.99,,2013-02-26 02:20:00,
2013-02-25 19:02:00,46.0,-99.9,-100.00,SSW,198,18.0,-999.0,-999,-99.99,,,-99.99,,2013-02-26 03:02:00,
2013-02-25 19:12:00,46.0,-99.9,-100.00,SSW,198,18.0,-999.0,-999,-99.99,,,-99.99,,2013-02-26 03:12:00,
2013-02-25 19:20:00,44.0,-99.9,-100.00,NNE,25,1.0,-999.0,-999,-99.99,,,-99.99,,2013-02-26 03:20:00,
2013-02-25 20:02:00,44.0,-99.9,-100.00,NNE,25,1.0,-999.0,-999,-99.99,,,-99.99,,2013-02-26 04:02:00,
2013-02-25 20:12:00,44.0,-99.9,-100.00,NNE,25,1.0,-999.0,-999,-99.99,,,-99.99,,2013-02-26 04:12:00,
2013-02-25 20:20:00,42.0,-99.9,-100.00,ENE,76,2.0,-999.0,-999,-99.99,,,-99.99,,2013-02-26 04:20:00,
2013-02-25 21:01:00,42.0,-99.9,-100.00,ENE,76,2.0,-999.0,-999,-99.99,,,-99.99,,2013-02-26 05:01:00,
2013-02-25 21:12:00,42.0,-99.9,-100.00,ENE,76,2.0,-999.0,-999,-99.99,,,-99.99,,2013-02-26 05:12:00,
2013-02-25 21:20:00,42.0,-99.9,-100.00,SE,142,5.0,-999.0,-999,-99.99,,,-99.99,,2013-02-26 05:20:00,
2013-02-25 22:02:00,42.0,-99.9,-100.00,SE,142,5.0,-999.0,-999,-99.99,,,-99.99,,2013-02-26 06:02:00,
2013-02-25 22:11:00,42.0,-99.9,-100.00,SE,142,5.0,-999.0,-999,-99.99,,,-99.99,,2013-02-26 06:11:00,
2013-02-25 22:20:00,40.0,-99.9,-100.00,West,262,2.0,-999.0,-999,-99.99,,,-99.99,,2013-02-26 06:20:00,
2013-02-25 23:01:00,40.0,-99.9,-100.00,West,262,2.0,-999.0,-999,-99.99,,,-99.99,,2013-02-26 07:01:00,
2013-02-25 23:11:00,40.0,-99.9,-100.00,West,262,2.0,-999.0,-999,-99.99,,,-99.99,,2013-02-26 07:11:00,
2013-02-25 23:20:00,39.0,-99.9,-100.00,West,277,1.0,-999.0,-999,-99.99,,,-99.99,,2013-02-26 07:20:00,